| time (UTC) | temp F | wind direction | speed MPH | gust MPH | rain 1hr in | rain 24hr in | rain mn in | humidity % | barometer mb |
| 20260507214718 | 67 | 98 | 4.0 | 5.0 | 0.00 | 0.04 | 0.04 | 45 | 1013.8 |
| 20260507214215 | 66 | 72 | 5.0 | 6.0 | 0.00 | 0.04 | 0.04 | 44 | 1013.7 |
| 20260507213710 | 66 | 43 | 3.0 | 5.0 | 0.00 | 0.04 | 0.04 | 48 | 1013.8 |
| 20260507213208 | 66 | 79 | 6.0 | 8.0 | 0.00 | 0.04 | 0.04 | 46 | 1014.0 |
| 20260507212703 | 67 | 20 | 6.0 | 8.0 | 0.00 | 0.04 | 0.04 | 46 | 1013.9 |
| 20260507212200 | 67 | 43 | 4.0 | 6.0 | 0.00 | 0.04 | 0.04 | 45 | 1013.8 |
| 20260507211657 | 68 | 357 | 7.0 | 9.0 | 0.00 | 0.04 | 0.04 | 43 | 1014.0 |
| 20260507211152 | 67 | 44 | 4.0 | 6.0 | 0.00 | 0.04 | 0.04 | 48 | 1014.0 |
| 20260507210650 | 66 | 51 | 4.0 | 5.0 | 0.00 | 0.04 | 0.04 | 46 | 1014.1 |
| 20260507210146 | 68 | 7 | 9.0 | 10.0 | 0.00 | 0.04 | 0.04 | 46 | 1014.1 |
| 20260507205643 | 67 | 313 | 4.0 | 8.0 | 0.00 | 0.04 | 0.04 | 48 | 1014.4 |
| 20260507205140 | 66 | 338 | 7.0 | 9.0 | 0.00 | 0.04 | 0.04 | 48 | 1014.6 |
| 20260507204636 | 66 | 348 | 8.0 | 10.0 | 0.00 | 0.04 | 0.04 | 48 | 1014.5 |
| 20260507204134 | 66 | 63 | 5.0 | 7.0 | 0.00 | 0.04 | 0.04 | 50 | 1014.4 |
| 20260507203632 | 64 | 18 | 8.0 | 9.0 | 0.00 | 0.04 | 0.04 | 50 | 1014.1 |
| 20260507203129 | 64 | 357 | 7.0 | 9.0 | 0.00 | 0.04 | 0.04 | 49 | 1014.4 |
| 20260507202625 | 64 | 12 | 2.0 | 2.0 | 0.00 | 0.04 | 0.04 | 49 | 1014.2 |
| 20260507202121 | 64 | 39 | 5.0 | 6.0 | 0.00 | 0.04 | 0.04 | 52 | 1014.5 |
| 20260507201616 | 64 | 336 | 3.0 | 3.0 | 0.00 | 0.04 | 0.04 | 50 | 1014.4 |
| 20260507201114 | 64 | 327 | 3.0 | 3.0 | 0.00 | 0.04 | 0.04 | 49 | 1014.4 |
| 20260507200609 | 65 | 39 | 2.0 | 3.0 | 0.00 | 0.04 | 0.04 | 50 | 1014.5 |
| 20260507200105 | 66 | 298 | 4.0 | 5.0 | 0.00 | 0.04 | 0.04 | 47 | 1014.4 |
| 20260507195603 | 67 | 31 | 4.0 | 5.0 | 0.00 | 0.04 | 0.04 | 43 | 1014.2 |
| 20260507195100 | 67 | 293 | 11.0 | 11.0 | 0.00 | 0.04 | 0.04 | 43 | 1014.1 |
| 20260507194556 | 66 | 273 | 8.0 | 9.0 | 0.00 | 0.04 | 0.04 | 44 | 1014.4 |
| 20260507194052 | 65 | 2 | 3.0 | 5.0 | 0.00 | 0.04 | 0.04 | 51 | 1014.4 |
| 20260507193549 | 65 | 76 | 3.0 | 3.0 | 0.00 | 0.04 | 0.04 | 52 | 1014.4 |
| 20260507193046 | 65 | 104 | 3.0 | 5.0 | 0.00 | 0.04 | 0.04 | 53 | 1014.6 |
| 20260507192542 | 64 | 333 | 0.0 | 1.0 | 0.00 | 0.04 | 0.04 | 53 | 1014.5 |
| 20260507192039 | 63 | 26 | 0.0 | 1.0 | 0.00 | 0.04 | 0.04 | 51 | 1014.6 |
| 20260507191534 | 62 | 3 | 2.0 | 2.0 | 0.00 | 0.04 | 0.04 | 53 | 1014.5 |
| 20260507191032 | 62 | 10 | 2.0 | 2.0 | 0.00 | 0.04 | 0.04 | 53 | 1014.7 |
| 20260507190529 | 62 | 56 | 1.0 | 2.0 | 0.00 | 0.04 | 0.04 | 53 | 1014.8 |
| 20260507190028 | 63 | 7 | 5.0 | 6.0 | 0.00 | 0.04 | 0.04 | 53 | 1014.8 |
| 20260507185526 | 64 | 358 | 5.0 | 6.0 | 0.00 | 0.04 | 0.04 | 53 | 1014.9 |
| 20260507185022 | 63 | 358 | 2.0 | 2.0 | 0.00 | 0.04 | 0.04 | 54 | 1014.8 |
| 20260507184521 | 63 | 45 | 4.0 | 6.0 | 0.00 | 0.04 | 0.04 | 57 | 1015.0 |
| 20260507184018 | 62 | 334 | 5.0 | 7.0 | 0.00 | 0.04 | 0.04 | 56 | 1014.9 |
| 20260507183513 | 61 | 37 | 7.0 | 9.0 | 0.00 | 0.04 | 0.04 | 58 | 1015.1 |
| 20260507183011 | 62 | 53 | 7.0 | 8.0 | 0.00 | 0.04 | 0.04 | 59 | 1015.0 |
| 20260507182507 | 63 | 38 | 5.0 | 7.0 | 0.00 | 0.04 | 0.04 | 57 | 1015.0 |
| 20260507182003 | 63 | 7 | 5.0 | 7.0 | 0.00 | 0.04 | 0.04 | 59 | 1015.1 |
| 20260507181500 | 61 | 13 | 2.0 | 2.0 | 0.00 | 0.04 | 0.04 | 59 | 1015.0 |
| 20260507180956 | 59 | 4 | 6.0 | 7.0 | 0.00 | 0.04 | 0.04 | 65 | 1015.3 |
| 20260507180453 | 59 | 331 | 7.0 | 13.0 | 0.00 | 0.04 | 0.04 | 64 | 1015.3 |
| 20260507175949 | 59 | 337 | 9.0 | 10.0 | 0.00 | 0.04 | 0.04 | 64 | 1015.1 |
| 20260507175446 | 59 | 11 | 7.0 | 8.0 | 0.00 | 0.04 | 0.04 | 62 | 1015.0 |
| 20260507174944 | 59 | 2 | 3.0 | 5.0 | 0.00 | 0.04 | 0.04 | 61 | 1015.1 |
| 20260507174440 | 60 | 52 | 5.0 | 6.0 | 0.00 | 0.04 | 0.04 | 59 | 1014.9 |
| 20260507173938 | 60 | 46 | 4.0 | 6.0 | 0.00 | 0.04 | 0.04 | 60 | 1014.9 |
| 20260507173435 | 60 | 23 | 3.0 | 5.0 | 0.00 | 0.04 | 0.04 | 60 | 1014.9 |
| 20260507172932 | 60 | 285 | 3.0 | 3.0 | 0.00 | 0.04 | 0.04 | 62 | 1014.8 |
| 20260507172428 | 61 | 272 | 6.0 | 6.0 | 0.00 | 0.04 | 0.04 | 60 | 1014.7 |
| 20260507171925 | 61 | 270 | 6.0 | 7.0 | 0.00 | 0.04 | 0.04 | 60 | 1014.7 |
| 20260507171421 | 61 | 272 | 8.0 | 8.0 | 0.00 | 0.04 | 0.04 | 58 | 1014.7 |
| 20260507170918 | 62 | 271 | 6.0 | 7.0 | 0.00 | 0.04 | 0.04 | 60 | 1014.7 |
| 20260507170414 | 62 | 266 | 5.0 | 6.0 | 0.00 | 0.04 | 0.04 | 61 | 1014.7 |
| 20260507165911 | 62 | 268 | 5.0 | 6.0 | 0.00 | 0.04 | 0.04 | 59 | 1014.7 |
| 20260507165407 | 62 | 247 | 5.0 | 6.0 | 0.00 | 0.04 | 0.04 | 60 | 1014.7 |
| 20260507164903 | 61 | 268 | 7.0 | 7.0 | 0.00 | 0.04 | 0.04 | 59 | 1014.7 |
| 20260507164400 | 61 | 268 | 5.0 | 5.0 | 0.00 | 0.04 | 0.04 | 61 | 1014.8 |
| 20260507163857 | 62 | 264 | 5.0 | 6.0 | 0.00 | 0.04 | 0.04 | 60 | 1014.7 |
| 20260507163355 | 61 | 279 | 6.0 | 8.0 | 0.00 | 0.04 | 0.04 | 63 | 1014.7 |
| 20260507162851 | 61 | 257 | 6.0 | 7.0 | 0.00 | 0.04 | 0.04 | 61 | 1014.8 |
| 20260507162346 | 60 | 271 | 4.0 | 5.0 | 0.00 | 0.04 | 0.04 | 66 | 1014.8 |
| 20260507161844 | 59 | 305 | 4.0 | 5.0 | 0.00 | 0.04 | 0.04 | 69 | 1014.9 |
| 20260507161340 | 57 | 305 | 3.0 | 3.0 | 0.00 | 0.04 | 0.04 | 70 | 1014.9 |
| 20260507160837 | 58 | 299 | 3.0 | 5.0 | 0.00 | 0.04 | 0.04 | 69 | 1014.9 |
| 20260507160332 | 58 | 298 | 5.0 | 6.0 | 0.00 | 0.04 | 0.04 | 68 | 1015.3 |
| 20260507155829 | 58 | 10 | 3.0 | 3.0 | 0.00 | 0.04 | 0.04 | 68 | 1015.3 |
| 20260507155325 | 57 | 356 | 2.0 | 2.0 | 0.00 | 0.04 | 0.04 | 70 | 1015.1 |
| 20260507154822 | 57 | 19 | 1.0 | 2.0 | 0.00 | 0.04 | 0.04 | 72 | 1015.1 |
| 20260507154319 | 57 | 333 | 1.0 | 2.0 | 0.00 | 0.04 | 0.04 | 74 | 1015.4 |
| 20260507153816 | 57 | 31 | 0.0 | 1.0 | 0.00 | 0.04 | 0.04 | 74 | 1015.1 |
| 20260507153312 | 56 | 10 | 0.0 | 1.0 | 0.00 | 0.04 | 0.04 | 74 | 1015.3 |
| 20260507152809 | 56 | 337 | 2.0 | 2.0 | 0.00 | 0.04 | 0.04 | 73 | 1015.3 |
| 20260507152306 | 56 | 40 | 0.0 | 0.0 | 0.00 | 0.04 | 0.04 | 73 | 1015.3 |
| 20260507151801 | 55 | 52 | 1.0 | 2.0 | 0.00 | 0.04 | 0.04 | 74 | 1015.1 |
| 20260507151257 | 57 | 72 | 2.0 | 2.0 | 0.00 | 0.04 | 0.04 | 72 | 1015.0 |
| 20260507150755 | 57 | 55 | 0.0 | 0.0 | 0.00 | 0.04 | 0.04 | 75 | 1015.1 |
| 20260507150251 | 54 | 111 | 2.0 | 2.0 | 0.00 | 0.04 | 0.04 | 78 | 1014.9 |
| 20260507145747 | 54 | 87 | 1.0 | 1.0 | 0.00 | 0.04 | 0.04 | 78 | 1015.1 |
| 20260507145244 | 53 | 282 | 2.0 | 2.0 | 0.00 | 0.04 | 0.04 | 80 | 1015.1 |
| 20260507144741 | 53 | 276 | 3.0 | 5.0 | 0.00 | 0.04 | 0.04 | 79 | 1015.3 |
| 20260507144239 | 53 | 288 | 5.0 | 6.0 | 0.00 | 0.04 | 0.04 | 82 | 1015.3 |
| 20260507143735 | 52 | 301 | 3.0 | 3.0 | 0.00 | 0.04 | 0.04 | 84 | 1014.9 |
| 20260507143232 | 53 | 336 | 1.0 | 2.0 | 0.00 | 0.04 | 0.04 | 83 | 1015.0 |
| 20260507142728 | 53 | 30 | 0.0 | 0.0 | 0.00 | 0.04 | 0.04 | 83 | 1014.8 |
| 20260507142225 | 51 | 30 | 0.0 | 0.0 | 0.00 | 0.04 | 0.04 | 86 | 1014.8 |
| 20260507141721 | 51 | 49 | 0.0 | 0.0 | 0.00 | 0.04 | 0.04 | 88 | 1014.7 |
| 20260507141219 | 51 | 141 | 0.0 | 0.0 | 0.00 | 0.04 | 0.04 | 88 | 1014.5 |
| 20260507140714 | 51 | 57 | 0.0 | 0.0 | 0.00 | 0.04 | 0.04 | 88 | 1014.2 |
| 20260507140212 | 51 | 11 | 0.0 | 0.0 | 0.00 | 0.04 | 0.04 | 87 | 1014.2 |
| 20260507135709 | 51 | 309 | 0.0 | 0.0 | 0.00 | 0.04 | 0.04 | 87 | 1014.5 |
| 20260507135206 | 50 | 348 | 0.0 | 0.0 | 0.00 | 0.04 | 0.04 | 88 | 1014.6 |
| 20260507134702 | 50 | 27 | 2.0 | 2.0 | 0.00 | 0.04 | 0.04 | 89 | 1014.7 |
| 20260507134159 | 50 | 22 | 1.0 | 1.0 | 0.00 | 0.04 | 0.04 | 88 | 1014.6 |
| 20260507133654 | 49 | 231 | 3.0 | 3.0 | 0.00 | 0.04 | 0.04 | 90 | 1014.2 |
| 20260507133152 | 49 | 168 | 2.0 | 2.0 | 0.00 | 0.04 | 0.04 | 91 | 1014.4 |
| 20260507132649 | 49 | 232 | 2.0 | 2.0 | 0.00 | 0.04 | 0.04 | 90 | 1014.2 |
| 20260507132145 | 49 | 199 | 1.0 | 2.0 | 0.00 | 0.04 | 0.04 | 90 | 1014.2 |
| 20260507131643 | 49 | 126 | 1.0 | 1.0 | 0.00 | 0.04 | 0.04 | 89 | 1014.1 |
| 20260507131140 | 49 | 112 | 2.0 | 2.0 | 0.00 | 0.04 | 0.04 | 88 | 1014.0 |
| 20260507130636 | 49 | 115 | 3.0 | 3.0 | 0.00 | 0.04 | 0.04 | 89 | 1013.9 |
| 20260507130134 | 48 | 81 | 0.0 | 0.0 | 0.00 | 0.04 | 0.04 | 89 | 1014.2 |
| 20260507125633 | 48 | 81 | 0.0 | 0.0 | 0.00 | 0.04 | 0.04 | 89 | 1014.1 |
| 20260507125130 | 48 | 81 | 0.0 | 0.0 | 0.00 | 0.04 | 0.04 | 89 | 1014.2 |
| 20260507124626 | 48 | 81 | 0.0 | 0.0 | 0.00 | 0.04 | 0.04 | 89 | 1013.8 |
| 20260507124124 | 48 | 81 | 1.0 | 1.0 | 0.00 | 0.04 | 0.04 | 88 | 1013.9 |
| 20260507123622 | 49 | 79 | 1.0 | 2.0 | 0.00 | 0.04 | 0.04 | 86 | 1013.7 |
| 20260507123119 | 49 | 64 | 2.0 | 3.0 | 0.00 | 0.04 | 0.04 | 87 | 1013.9 |
| 20260507122614 | 48 | 62 | 3.0 | 3.0 | 0.00 | 0.04 | 0.04 | 88 | 1014.0 |
| 20260507122110 | 48 | 43 | 0.0 | 0.0 | 0.00 | 0.04 | 0.04 | 87 | 1013.8 |
| 20260507121606 | 48 | 52 | 1.0 | 1.0 | 0.00 | 0.04 | 0.04 | 87 | 1013.9 |
| 20260507121102 | 48 | 12 | 2.0 | 2.0 | 0.00 | 0.04 | 0.04 | 87 | 1014.0 |
| 20260507120558 | 47 | 352 | 2.0 | 3.0 | 0.00 | 0.04 | 0.04 | 88 | 1013.7 |
| 20260507120055 | 47 | 0 | 1.0 | 2.0 | 0.00 | 0.04 | 0.04 | 87 | 1013.7 |
| 20260507115551 | 48 | 346 | 1.0 | 2.0 | 0.00 | 0.04 | 0.04 | 87 | 1013.5 |
| 20260507115048 | 49 | 331 | 1.0 | 1.0 | 0.00 | 0.04 | 0.04 | 85 | 1013.6 |
| 20260507114543 | 50 | 148 | 0.0 | 0.0 | 0.00 | 0.04 | 0.04 | 82 | 1013.6 |
| 20260507114041 | 50 | 161 | 2.0 | 2.0 | 0.00 | 0.04 | 0.04 | 84 | 1013.6 |
| 20260507113538 | 50 | 163 | 2.0 | 2.0 | 0.00 | 0.04 | 0.04 | 84 | 1013.6 |
| 20260507113035 | 50 | 162 | 0.0 | 1.0 | 0.00 | 0.04 | 0.04 | 84 | 1013.8 |
| 20260507112533 | 50 | 165 | 2.0 | 2.0 | 0.00 | 0.04 | 0.04 | 83 | 1013.7 |
| 20260507112029 | 50 | 129 | 3.0 | 3.0 | 0.00 | 0.04 | 0.04 | 84 | 1013.9 |
| 20260507111526 | 50 | 121 | 3.0 | 3.0 | 0.00 | 0.04 | 0.04 | 84 | 1013.9 |
| 20260507111023 | 51 | 211 | 0.0 | 0.0 | 0.00 | 0.04 | 0.04 | 83 | 1013.7 |
| 20260507110520 | 51 | 218 | 3.0 | 3.0 | 0.00 | 0.04 | 0.04 | 82 | 1014.0 |
| 20260507110016 | 51 | 208 | 5.0 | 5.0 | 0.00 | 0.04 | 0.04 | 81 | 1013.8 |
| 20260507105513 | 51 | 238 | 3.0 | 3.0 | 0.00 | 0.04 | 0.04 | 79 | 1013.6 |
| 20260507105009 | 52 | 232 | 6.0 | 8.0 | 0.00 | 0.04 | 0.04 | 77 | 1013.8 |
| 20260507104507 | 53 | 284 | 4.0 | 5.0 | 0.00 | 0.04 | 0.04 | 68 | 1013.5 |
| 20260507104003 | 52 | 326 | 3.0 | 3.0 | 0.00 | 0.04 | 0.04 | 76 | 1013.6 |
| 20260507103500 | 51 | 243 | 7.0 | 7.0 | 0.00 | 0.04 | 0.04 | 81 | 1014.0 |
| 20260507102955 | 51 | 287 | 4.0 | 5.0 | 0.00 | 0.04 | 0.04 | 79 | 1013.7 |
| 20260507102452 | 51 | 292 | 2.0 | 2.0 | 0.00 | 0.04 | 0.04 | 79 | 1013.8 |
| 20260507101948 | 51 | 299 | 5.0 | 6.0 | 0.00 | 0.04 | 0.04 | 80 | 1013.8 |
| 20260507101443 | 51 | 315 | 4.0 | 7.0 | 0.00 | 0.04 | 0.04 | 79 | 1014.0 |
| 20260507100940 | 52 | 298 | 6.0 | 7.0 | 0.00 | 0.04 | 0.04 | 78 | 1014.2 |
| 20260507100438 | 52 | 284 | 10.0 | 10.0 | 0.12 | 0.04 | 0.04 | 75 | 1014.7 |
| 20260507095936 | 51 | 264 | 11.0 | 13.0 | 0.17 | 0.04 | 0.04 | 80 | 1014.7 |
| 20260507095433 | 52 | 290 | 21.0 | 25.0 | 0.05 | 0.02 | 0.02 | 77 | 1015.0 |
| 20260507094930 | 51 | 271 | 26.0 | 29.0 | 0.00 | 0.01 | 0.01 | 81 | 1014.0 |
| 20260507094426 | 54 | 287 | 12.0 | 13.0 | 0.00 | 0.01 | 0.01 | 72 | 1014.7 |
| 20260507093923 | 54 | 291 | 27.0 | 32.0 | 0.00 | 0.01 | 0.01 | 67 | 1014.5 |
| 20260507093421 | 54 | 338 | 14.0 | 18.0 | 0.00 | 0.01 | 0.01 | 70 | 1014.1 |
| 20260507092920 | 51 | 290 | 7.0 | 9.0 | 0.00 | 0.01 | 0.01 | 83 | 1013.8 |
| 20260507092415 | 51 | 339 | 4.0 | 5.0 | 0.00 | 0.01 | 0.01 | 84 | 1013.2 |
| 20260507091912 | 51 | 298 | 3.0 | 3.0 | 0.00 | 0.01 | 0.01 | 84 | 1012.7 |
| 20260507091408 | 51 | 277 | 3.0 | 3.0 | 0.00 | 0.01 | 0.01 | 83 | 1012.7 |
| 20260507090904 | 51 | 280 | 3.0 | 3.0 | 0.00 | 0.01 | 0.01 | 83 | 1012.7 |
| 20260507090401 | 51 | 270 | 2.0 | 2.0 | 0.00 | 0.01 | 0.01 | 83 | 1012.6 |
| 20260507085858 | 52 | 0 | 1.0 | 2.0 | 0.00 | 0.01 | 0.01 | 78 | 1012.4 |
| 20260507085354 | 51 | 22 | 2.0 | 2.0 | 0.00 | 0.01 | 0.01 | 79 | 1012.1 |
| 20260507084852 | 52 | 22 | 1.0 | 1.0 | 0.00 | 0.01 | 0.01 | 80 | 1012.4 |
| 20260507084348 | 52 | 99 | 0.0 | 0.0 | 0.00 | 0.01 | 0.01 | 80 | 1012.2 |
| 20260507083846 | 52 | 51 | 0.0 | 0.0 | 0.00 | 0.01 | 0.01 | 81 | 1012.4 |
| 20260507083342 | 52 | 52 | 0.0 | 0.0 | 0.00 | 0.01 | 0.01 | 78 | 1012.1 |
| 20260507082838 | 53 | 52 | 0.0 | 0.0 | 0.00 | 0.01 | 0.01 | 77 | 1012.1 |
| 20260507082334 | 53 | 52 | 0.0 | 0.0 | 0.00 | 0.01 | 0.01 | 74 | 1012.1 |
| 20260507081831 | 53 | 52 | 0.0 | 0.0 | 0.00 | 0.01 | 0.01 | 75 | 1012.2 |
| 20260507081327 | 53 | 52 | 0.0 | 0.0 | 0.00 | 0.01 | 0.01 | 76 | 1012.1 |
| 20260507080824 | 53 | 52 | 1.0 | 1.0 | 0.00 | 0.01 | 0.01 | 75 | 1012.2 |
| 20260507080320 | 52 | 62 | 0.0 | 0.0 | 0.00 | 0.01 | 0.01 | 77 | 1012.0 |
| 20260507075815 | 52 | 52 | 2.0 | 2.0 | 0.00 | 0.01 | 0.01 | 78 | 1012.0 |
| 20260507075312 | 53 | 45 | 1.0 | 1.0 | 0.00 | 0.01 | 0.01 | 76 | 1012.0 |
| 20260507074809 | 55 | 67 | 1.0 | 1.0 | 0.00 | 0.01 | 0.01 | 70 | 1011.9 |
| 20260507074306 | 55 | 107 | 2.0 | 2.0 | 0.00 | 0.01 | 0.01 | 69 | 1012.0 |
| 20260507073803 | 55 | 100 | 2.0 | 2.0 | 0.00 | 0.01 | 0.01 | 68 | 1012.0 |
| 20260507073300 | 55 | 124 | 3.0 | 3.0 | 0.00 | 0.01 | 0.01 | 67 | 1011.9 |
| 20260507072757 | 56 | 142 | 3.0 | 3.0 | 0.00 | 0.01 | 0.01 | 65 | 1011.9 |
| 20260507072255 | 55 | 244 | 0.0 | 0.0 | 0.00 | 0.01 | 0.01 | 65 | 1012.1 |
| 20260507071752 | 56 | 179 | 1.0 | 1.0 | 0.00 | 0.01 | 0.01 | 66 | 1011.9 |
| 20260507071248 | 56 | 162 | 3.0 | 3.0 | 0.00 | 0.01 | 0.01 | 64 | 1012.0 |
| 20260507070745 | 56 | 216 | 0.0 | 1.0 | 0.00 | 0.01 | 0.01 | 64 | 1011.9 |
| 20260507070242 | 56 | 255 | 4.0 | 5.0 | 0.00 | 0.01 | 0.01 | 64 | 1011.9 |
| 20260507065738 | 55 | 204 | 4.0 | 6.0 | 0.00 | 0.01 | 0.01 | 66 | 1011.9 |
| 20260507065236 | 56 | 231 | 6.0 | 7.0 | 0.00 | 0.01 | 0.01 | 66 | 1011.9 |
| 20260507064733 | 55 | 229 | 5.0 | 6.0 | 0.00 | 0.01 | 0.01 | 63 | 1011.9 |
| 20260507064232 | 55 | 65 | 0.0 | 0.0 | 0.00 | 0.01 | 0.01 | 67 | 1011.9 |
| 20260507063728 | 56 | 33 | 2.0 | 2.0 | 0.00 | 0.01 | 0.01 | 65 | 1011.7 |
| 20260507063225 | 57 | 34 | 3.0 | 3.0 | 0.00 | 0.01 | 0.01 | 62 | 1011.7 |
| 20260507062722 | 56 | 42 | 4.0 | 5.0 | 0.00 | 0.01 | 0.01 | 64 | 1011.9 |
| 20260507062220 | 57 | 342 | 6.0 | 7.0 | 0.00 | 0.01 | 0.01 | 64 | 1012.0 |
| 20260507061717 | 58 | 315 | 6.0 | 8.0 | 0.07 | 0.01 | 0.01 | 61 | 1012.5 |
| 20260507061215 | 57 | 316 | 5.0 | 9.0 | 0.07 | 0.01 | 0.01 | 63 | 1012.6 |
| 20260507060713 | 58 | 294 | 19.0 | 23.0 | 0.00 | 0.00 | 0.00 | 61 | 1012.9 |
| 20260507060209 | 58 | 303 | 14.0 | 16.0 | 0.00 | 0.00 | 0.00 | 58 | 1012.6 |
| 20260507055705 | 60 | 262 | 10.0 | 11.0 | 0.00 | 0.00 | 0.00 | 59 | 1012.6 |
| 20260507055201 | 59 | 269 | 19.0 | 22.0 | 0.00 | 0.00 | 0.00 | 54 | 1012.8 |
| 20260507054657 | 59 | 300 | 12.0 | 16.0 | 0.00 | 0.00 | 0.00 | 59 | 1012.6 |
| 20260507054154 | 58 | 286 | 14.0 | 15.0 | 0.00 | 0.00 | 0.00 | 61 | 1012.5 |
| 20260507053652 | 59 | 293 | 12.0 | 15.0 | 0.00 | 0.00 | 0.00 | 58 | 1012.2 |
| 20260507053150 | 60 | 346 | 1.0 | 2.0 | 0.00 | 0.00 | 0.00 | 56 | 1012.1 |
| 20260507052648 | 61 | 294 | 16.0 | 18.0 | 0.00 | 0.00 | 0.00 | 50 | 1012.1 |
| 20260507052144 | 63 | 294 | 12.0 | 14.0 | 0.00 | 0.00 | 0.00 | 47 | 1012.0 |
| 20260507051642 | 63 | 290 | 11.0 | 15.0 | 0.00 | 0.00 | 0.00 | 45 | 1012.0 |
| 20260507051138 | 63 | 244 | 23.0 | 27.0 | 0.00 | 0.00 | 0.00 | 45 | 1012.0 |
| 20260507050635 | 62 | 261 | 21.0 | 26.0 | 0.00 | 0.00 | 0.00 | 45 | 1011.8 |
| 20260507050132 | 61 | 259 | 15.0 | 18.0 | 0.00 | 0.00 | 0.00 | 51 | 1012.1 |
| 20260507045629 | 61 | 307 | 22.0 | 25.0 | 0.00 | 0.00 | 0.00 | 51 | 1012.6 |
| 20260507045126 | 61 | 303 | 11.0 | 11.0 | 0.00 | 0.00 | 0.00 | 50 | 1012.5 |
| 20260507044622 | 61 | 285 | 11.0 | 13.0 | 0.00 | 0.00 | 0.00 | 50 | 1012.5 |
| 20260507044120 | 62 | 281 | 18.0 | 20.0 | 0.00 | 0.00 | 0.00 | 48 | 1012.0 |
| 20260507043615 | 62 | 282 | 20.0 | 24.0 | 0.00 | 0.00 | 0.00 | 48 | 1012.5 |
| 20260507043113 | 64 | 280 | 26.0 | 29.0 | 0.00 | 0.00 | 0.00 | 44 | 1012.2 |
| 20260507042609 | 62 | 259 | 7.0 | 8.0 | 0.00 | 0.00 | 0.00 | 49 | 1012.2 |
| 20260507042104 | 62 | 281 | 5.0 | 6.0 | 0.00 | 0.00 | 0.00 | 48 | 1011.9 |
| 20260507041601 | 62 | 265 | 5.0 | 5.0 | 0.00 | 0.00 | 0.00 | 47 | 1011.9 |
| 20260507041058 | 63 | 264 | 5.0 | 6.0 | 0.00 | 0.00 | 0.00 | 45 | 1011.9 |
| 20260507040555 | 63 | 276 | 4.0 | 6.0 | 0.00 | 0.00 | 0.00 | 45 | 1011.9 |
| 20260507040051 | 64 | 236 | 4.0 | 6.0 | 0.00 | 0.00 | 0.00 | 44 | 1011.9 |
| 20260507035547 | 64 | 265 | 6.0 | 6.0 | 0.00 | 0.00 | 0.00 | 44 | 1011.8 |
| 20260507035043 | 64 | 244 | 6.0 | 7.0 | 0.00 | 0.00 | 0.00 | 43 | 1011.7 |
| 20260507034540 | 64 | 255 | 7.0 | 8.0 | 0.00 | 0.00 | 0.00 | 43 | 1011.5 |
| 20260507034038 | 64 | 247 | 7.0 | 8.0 | 0.00 | 0.00 | 0.00 | 44 | 1011.6 |
| 20260507033536 | 64 | 250 | 7.0 | 8.0 | 0.00 | 0.00 | 0.00 | 44 | 1011.5 |
| 20260507033033 | 64 | 248 | 7.0 | 8.0 | 0.00 | 0.00 | 0.00 | 44 | 1011.5 |
| 20260507032530 | 64 | 240 | 9.0 | 10.0 | 0.00 | 0.00 | 0.00 | 43 | 1011.3 |
| 20260507032026 | 64 | 253 | 11.0 | 13.0 | 0.00 | 0.00 | 0.00 | 43 | 1011.1 |
| 20260507031522 | 64 | 246 | 9.0 | 10.0 | 0.00 | 0.00 | 0.00 | 43 | 1011.3 |
| 20260507031020 | 65 | 243 | 9.0 | 11.0 | 0.00 | 0.00 | 0.00 | 43 | 1011.2 |
| 20260507030516 | 65 | 248 | 13.0 | 15.0 | 0.00 | 0.00 | 0.00 | 42 | 1011.1 |
| 20260507030014 | 65 | 255 | 9.0 | 10.0 | 0.00 | 0.00 | 0.00 | 42 | 1011.0 |
| 20260507025511 | 65 | 272 | 10.0 | 11.0 | 0.00 | 0.00 | 0.00 | 41 | 1010.9 |
| 20260507025009 | 66 | 238 | 10.0 | 10.0 | 0.00 | 0.00 | 0.00 | 40 | 1010.8 |
| 20260507024506 | 65 | 257 | 11.0 | 11.0 | 0.00 | 0.00 | 0.00 | 40 | 1010.9 |
| 20260507024002 | 66 | 258 | 11.0 | 13.0 | 0.00 | 0.00 | 0.00 | 38 | 1010.9 |
| 20260507023459 | 66 | 267 | 7.0 | 9.0 | 0.00 | 0.00 | 0.00 | 38 | 1011.0 |
| 20260507022956 | 66 | 273 | 9.0 | 10.0 | 0.00 | 0.00 | 0.00 | 37 | 1010.9 |
| 20260507022453 | 67 | 280 | 9.0 | 10.0 | 0.00 | 0.00 | 0.00 | 36 | 1010.8 |
| 20260507021948 | 67 | 284 | 12.0 | 14.0 | 0.00 | 0.00 | 0.00 | 36 | 1010.8 |
| 20260507021444 | 66 | 273 | 12.0 | 15.0 | 0.00 | 0.00 | 0.00 | 36 | 1010.8 |
| 20260507020941 | 66 | 302 | 7.0 | 9.0 | 0.00 | 0.00 | 0.00 | 36 | 1010.7 |
| 20260507020438 | 67 | 306 | 9.0 | 10.0 | 0.00 | 0.00 | 0.00 | 36 | 1010.8 |
| 20260507015935 | 68 | 264 | 11.0 | 13.0 | 0.00 | 0.00 | 0.00 | 34 | 1010.8 |
| 20260507015434 | 68 | 285 | 9.0 | 11.0 | 0.00 | 0.00 | 0.00 | 34 | 1010.8 |
| 20260507014930 | 68 | 286 | 16.0 | 21.0 | 0.00 | 0.00 | 0.00 | 33 | 1011.1 |
| 20260507014427 | 68 | 289 | 10.0 | 13.0 | 0.00 | 0.00 | 0.00 | 34 | 1010.8 |
| 20260507013923 | 68 | 322 | 11.0 | 13.0 | 0.00 | 0.00 | 0.00 | 33 | 1010.7 |
| 20260507013420 | 69 | 290 | 13.0 | 15.0 | 0.00 | 0.00 | 0.00 | 33 | 1010.8 |
| 20260507012917 | 68 | 279 | 13.0 | 14.0 | 0.00 | 0.00 | 0.00 | 32 | 1010.8 |
| 20260507012413 | 69 | 277 | 14.0 | 16.0 | 0.00 | 0.00 | 0.00 | 33 | 1010.8 |
| 20260507011905 | 69 | 287 | 13.0 | 16.0 | 0.00 | 0.00 | 0.00 | 33 | 1010.7 |
| 20260507011402 | 69 | 288 | 15.0 | 20.0 | 0.00 | 0.00 | 0.00 | 32 | 1010.9 |
| 20260507010902 | 70 | 303 | 15.0 | 15.0 | 0.00 | 0.00 | 0.00 | 32 | 1010.8 |
| 20260507010357 | 70 | 275 | 17.0 | 18.0 | 0.00 | 0.00 | 0.00 | 32 | 1010.7 |
| 20260507005855 | 70 | 281 | 13.0 | 15.0 | 0.00 | 0.00 | 0.00 | 32 | 1010.8 |
| 20260507005351 | 70 | 272 | 14.0 | 17.0 | 0.00 | 0.00 | 0.00 | 32 | 1010.8 |
| 20260507004848 | 69 | 272 | 16.0 | 17.0 | 0.00 | 0.00 | 0.00 | 31 | 1010.7 |
| 20260507004345 | 69 | 271 | 14.0 | 16.0 | 0.00 | 0.00 | 0.00 | 32 | 1010.7 |
| 20260507003842 | 69 | 306 | 10.0 | 10.0 | 0.00 | 0.00 | 0.00 | 33 | 1010.7 |
| 20260507003338 | 70 | 273 | 15.0 | 17.0 | 0.00 | 0.00 | 0.00 | 31 | 1010.6 |
| 20260507002833 | 70 | 306 | 12.0 | 15.0 | 0.00 | 0.00 | 0.00 | 31 | 1010.7 |
| 20260507002329 | 70 | 332 | 13.0 | 16.0 | 0.00 | 0.00 | 0.00 | 31 | 1010.9 |
| 20260507001827 | 70 | 269 | 16.0 | 20.0 | 0.00 | 0.00 | 0.00 | 30 | 1010.7 |
| 20260507001323 | 71 | 291 | 16.0 | 17.0 | 0.00 | 0.00 | 0.00 | 31 | 1010.8 |
| 20260507000820 | 72 | 270 | 15.0 | 16.0 | 0.00 | 0.00 | 0.00 | 29 | 1010.9 |
| 20260507000315 | 72 | 292 | 17.0 | 20.0 | 0.00 | 0.00 | 0.00 | 29 | 1010.6 |
| 20260506235812 | 72 | 279 | 13.0 | 14.0 | 0.00 | 0.00 | 0.00 | 29 | 1010.8 |
| 20260506235308 | 72 | 285 | 21.0 | 24.0 | 0.00 | 0.00 | 0.00 | 28 | 1010.9 |
| 20260506234805 | 73 | 302 | 19.0 | 23.0 | 0.00 | 0.00 | 0.00 | 29 | 1010.9 |
| 20260506234302 | 73 | 278 | 22.0 | 25.0 | 0.00 | 0.00 | 0.00 | 28 | 1010.8 |
| 20260506233800 | 71 | 317 | 7.0 | 8.0 | 0.00 | 0.00 | 0.00 | 31 | 1010.9 |
| 20260506233250 | 71 | 297 | 12.0 | 15.0 | 0.00 | 0.00 | 0.00 | 31 | 1010.9 |
| 20260506232747 | 70 | 309 | 12.0 | 15.0 | 0.00 | 0.00 | 0.00 | 31 | 1010.8 |
| 20260506232242 | 71 | 297 | 15.0 | 17.0 | 0.00 | 0.00 | 0.00 | 29 | 1011.0 |
| 20260506231739 | 71 | 306 | 11.0 | 15.0 | 0.00 | 0.00 | 0.00 | 30 | 1010.9 |
| 20260506231238 | 71 | 278 | 12.0 | 16.0 | 0.00 | 0.00 | 0.00 | 29 | 1011.1 |
| 20260506230734 | 71 | 275 | 15.0 | 17.0 | 0.00 | 0.00 | 0.00 | 28 | 1011.0 |
| 20260506230231 | 72 | 283 | 15.0 | 16.0 | 0.00 | 0.00 | 0.00 | 29 | 1011.0 |
| 20260506225728 | 72 | 297 | 10.0 | 13.0 | 0.00 | 0.00 | 0.00 | 30 | 1011.2 |
| 20260506225225 | 71 | 340 | 14.0 | 17.0 | 0.00 | 0.00 | 0.00 | 29 | 1011.3 |
| 20260506224721 | 72 | 303 | 17.0 | 21.0 | 0.00 | 0.00 | 0.00 | 28 | 1011.6 |
| 20260506224218 | 72 | 286 | 19.0 | 22.0 | 0.00 | 0.00 | 0.00 | 29 | 1011.6 |
| 20260506223714 | 71 | 267 | 14.0 | 17.0 | 0.00 | 0.00 | 0.00 | 30 | 1011.6 |
| 20260506223210 | 71 | 285 | 21.0 | 24.0 | 0.00 | 0.00 | 0.00 | 29 | 1011.6 |
| 20260506222708 | 71 | 11 | 4.0 | 6.0 | 0.00 | 0.00 | 0.00 | 31 | 1011.8 |
| 20260506222203 | 70 | 85 | 2.0 | 2.0 | 0.00 | 0.00 | 0.00 | 31 | 1012.1 |
| 20260506221701 | 69 | 168 | 3.0 | 6.0 | 0.00 | 0.00 | 0.00 | 32 | 1011.9 |
| 20260506221159 | 68 | 298 | 7.0 | 9.0 | 0.00 | 0.00 | 0.00 | 31 | 1012.2 |
| 20260506220656 | 69 | 280 | 7.0 | 8.0 | 0.00 | 0.00 | 0.00 | 33 | 1012.4 |
| 20260506220150 | 68 | 47 | 1.0 | 2.0 | 0.00 | 0.00 | 0.00 | 34 | 1012.6 |
| 20260506215648 | 67 | 98 | 9.0 | 9.0 | 0.00 | 0.00 | 0.00 | 33 | 1012.6 |
| 20260506215143 | 66 | 95 | 8.0 | 9.0 | 0.00 | 0.00 | 0.00 | 35 | 1012.7 |